一网星座-0592星 (ONEWEB-0592 )

导读 | 豆包AI

ONEWEB-0592是英国OneWeb星座的低轨宽带互联网卫星,于2022年12月8日由SpaceX猎鹰九号火箭发射升空,是OneWeb更换发射商后组网进程中的一员。OneWeb星座计划构建全球卫星互联网络,该卫星运行于近地轨道,可为偏远地区、海事航空等场景提供宽带接入服务,支撑OneWeb完成全球覆盖的组网目标,推动低轨卫星通信商业化落地。

基本信息
目录编号:
54658
目录名称:
ONEWEB-0592
国际标识:
2022-166S
轨道中心:
EARTH
卫星名称:
一网星座-0592星
卫星全名:
一网星座-0592星 (ONEWEB-0592 )
卫星状态:
在轨 (已飞行1192 天)
发射日期:
2022-12-08 UTC
国别 :
英国 (GB)
星等 :
--
轨道信息
数据来源 国际轨道数据 AOE轨道数据
星历时间 2026-03-14T06:26:05+0800
7小时前
查看轨道信息
2026-03-12T08:00:00+0800
2天前
查看轨道信息
半长轴 7555.897km 7555.902km
偏心率 0.0001589 0.0001391
轨道倾角 87.918° 87.917°
近地点辐角 90.696° 89.383°
升交点赤经 262.949° 263.337°
平近点角 269.435° 69.255°
近地点 1176.559km 1176.713km
远地点 1178.961km 1178.817km
周期 108.940分钟 108.940分钟
每日圈数 13.218245 13.218231
详细信息
平衡模式:
三轴稳定
覆盖范围:
全球
运营商:
一网卫星公司
运营商所在国:
英国
制造商(研发单位):
一网卫星公司
制造商所在国:
英国
使用方式:
暂无
卫星简介
OneWeb卫星网络由648颗重约125公斤的微型卫星组成,运行在1200公里的轨道上。 每颗卫星都能够提供至少每秒8千兆位的吞吐量,以使用其高吞吐量的Ku频段有效载荷为家庭和移动平台提供互联网接入。该卫星仍在工作。
2D轨道图
3D轨道图
轨道高度分析图
轨道倾角分析图
轨道综合分析图
查看轨道综合分析图